Regional Weather Roundup
Issued by NWS

Home | Current Version | Previous Version | Graphics & Text | Print | Product List | Glossary On
Versions: 1 2 3 4 5 6 7 8 9 10 11 12 13 14 15 16 17 18 19 20 21 22 23 24 25 26 27 28 29 30 31 32 33 34 35 36 37 38 39 40 41 42 43 44 45 46 47 48 49 50
000
ASUS43 KOAX 290702
RWRNE

WEATHER ROUNDUP FOR NEBRASKA
NATIONAL WEATHER SERVICE OMAHA NE
200 AM CDT FRI AUG 29 2014

NOTES: SATELLITE DATA IS BEING USED TO AUGMENT CLOUD COVER ABOVE
       12000 FEET.
       "FAIR" INDICATES FEW OR NO CLOUDS BELOW 12,000 FEET WITH NO
       SIGNIFICANT WEATHER AND/OR OBSTRUCTIONS TO VISIBILITY.

  * THESE STATIONS DO NOT REPORT WEATHER SUCH AS RAIN...SNOW OR FOG.

NEZ001>004-019>022-054>056-290800-
NEBRASKA PANHANDLE

CITY           SKY/WX    TMP DP  RH WIND       PRES   REMARKS
SCOTTSBLUFF    CLEAR     52  51  97 N3        30.01F
ALLIANCE       CLEAR     52  50  93 W8        29.98F
CHADRON        CLEAR     55  53  93 W8        29.94F
KIMBALL        CLEAR     52  50  93 W8        30.05F
SIDNEY         PTCLDY    56  50  80 W8        30.03F
$$

NEZ057>060-069>072-079>082-290800-
SOUTHWEST NEBRASKA

CITY           SKY/WX    TMP DP  RH WIND       PRES   REMARKS
NORTH PLATTE   PTCLDY    59  56  89 NW7       29.93S
IMPERIAL       CLEAR     59  54  83 NW9       29.96S
LEXINGTON      MOCLDY    64  62  93 NW6       29.88F
MCCOOK         PTCLDY    61  57  87 NW6       29.92R
OGALLALA       PTCLDY    57  53  88 NW6       29.95F
$$

NEZ005>010-023>029-035>040-094-290800-
NORTH CENTRAL NEBRASKA

CITY           SKY/WX    TMP DP  RH WIND       PRES   REMARKS
VALENTINE      PTCLDY    63  62  97 SW5       29.89S
AINSWORTH      PTCLDY    59  58  97 W3        29.89S
BROKEN BOW     MOCLDY    64  61  90 NW6       29.87F
O`NEILL        MOCLDY    64  63  96 W7        29.85S
ORD            MOCLDY    63  61  93 W3        29.84S
THEDFORD       PTCLDY    58  56  94 W3        29.93S
$$

NEZ041-046>049-061>064-073>077-083>087-290800-
SOUTH CENTRAL NEBRASKA

CITY           SKY/WX    TMP DP  RH WIND       PRES   REMARKS
GRAND ISLAND   CLOUDY    70  67  90 CALM      29.83F
AURORA         CLOUDY    68  67  96 CALM      29.82F
HASTINGS       CLOUDY    67  62  84 CALM      29.84F
HEBRON         MOCLDY    69  64  83 SE3       29.83S
HOLDREGE       CLOUDY    65  63  92 CALM      29.86S
KEARNEY *      CLOUDY    66  63  88 NW10      29.85F
YORK           MOCLDY    68 N/A N/A CALM      29.83F
$$

NEZ011>018-030>034-042>045-290800-
NORTHEAST NEBRASKA

CITY           SKY/WX    TMP DP  RH WIND       PRES   REMARKS
NORFOLK        CLOUDY    70  64  81 SE10      29.81S
ALBION         CLOUDY    65  64  94 NW6       29.82S
BLAIR          CLOUDY    72  69  90 SE6       29.83F
FREMONT        CLOUDY    75  68  80 SE8       29.82S
TEKAMAH        CLOUDY    72  69  90 SE6       29.81F
WAYNE          DRIZZLE   71  69  92 S7        29.80F
$$

NEZ050>053-065>068-078-088>093-290800-
SOUTHEAST NEBRASKA

CITY           SKY/WX    TMP DP  RH WIND       PRES   REMARKS
LINCOLN        MOCLDY    74  68  81 S8        29.83F
OMAHA EPPLEY   CLOUDY    73  68  84 SE10      29.82F
BEATRICE       MOCLDY    72  68  88 SE7       29.84S
FALLS CITY     CLOUDY    74  72  93 SE6       29.83F
NEBRASKA CITY  MOCLDY    70  70 100 S3        29.84F
PLATTSMOUTH    MOCLDY    73  70  92 CALM      29.84F FOG
$$

NEZ044-045-051>053-067-290800-
OMAHA AREA

CITY           SKY/WX    TMP DP  RH WIND       PRES   REMARKS
OMAHA EPPLEY   CLOUDY    73  68  84 SE10      29.82F
BLAIR          CLOUDY    72  69  90 SE6       29.83F
FREMONT        CLOUDY    75  68  80 SE8       29.82S
MILLARD        CLOUDY    73  71  92 SE5       29.83S
OFFUTT AFB     CLOUDY    74  74 100 SE5       29.83S
PLATTSMOUTH    MOCLDY    73  70  92 CALM      29.84F FOG
WAHOO          FAIR      71  67  88 S6        29.83S
$$


USA.gov is the U.S. government's official web portal to all federal, state and local government web resources and services.